Погода Идринское

Погода Идринское : погода сейчас, прогноз погоды и архив. Всё, что Вы хотите узнать о погоде Идринское!

Хотите узнать прогноз погоды Идринское? Тогда Вам сюда: Погода Идринское

Поиск расширенной информации на нашем сайте:

Другие новости

Новости СМИ2

Главная страница сайта

Новости сайта

02.10.2013

Напоминаем, что на нашем новом сайте вы можете получить высокодетализированные прогнозы погоды по пунктам России, СНГ и мира (включающие важные для авиации метеовеличины, такие как направление и скорость ветра, видимость, явления погоды, количество и форма облачности, нижняя и верхняя граница облачности), а также ознакомиться с разнообразными материалами по авиационной метеорологии и подборкой полезных ссылок на эту тему.

Сайт Метеоцентр.Азия посвящён разработке технологий оптимизации авиаметеорологического обслуживания, включая проектирование и перспективное создание нескольких автоматизированных авиаметеорологических систем:
- система выпуска высокодетальных прогностических карт явлений погоды для нижнего воздушного пространства по России и ближнему зарубежью;
- система верификации прогнозов TAF (выпускаемых синоптиками официальных АМСГ РФ и ближнего зарубежья) и AUTOTAF (выпускаемых сайтом Метеоцентр.Азия) - выявление ошибок, онлайн-сопоставление с фактической погодой METAR, автоматическое внесение коррективов в прогнозы при резком отклонении фактической погоды от прогноза, подсчёт оправдываемости прогнозов по элементам и в целом;
- система обработки, анализа и отображения авиаметеорологической информации для применения провайдерами метеорологической информации.

Рекомендуем: Сайт где репетиторы по физике в Москве могут выложить свои предложения.

Погода Идринское - сегодня

Время (UTC), дата Ветер
(°,м/с) 
Видим.   Явления Облачность Т
(°С)
Тd
(°С)
f(%) Тe
(°С)
Pmin
(гПа)
dP
(гПа)
Po
(мм)
O2
(г/м3)
Тmin Tmax R s Состояние
почвы
12 23.02.17 120 (ЮВ) 20000 м    6/6 2000 м средняя 
[Ac trans]
-2.5 -6.1 76 -2  1030.8  0.2  746  304    +3.3       
15 23.02.17 120 (ЮВ) 20000 м    4/0 верхняя 
[Ci fib]
-6.8 -8.7 86 -8  1031.8  0.3  746  309           
18 23.02.17 120 (ЮВ) 20000 м    ясно 
-9.5 -10.6 92 -11  1031.9  -0.3  746  313           
21 23.02.17 120 (ЮВ) 20000 м    ясно 
-11.9 -12.4 96 -12  1032.1  0.1  746  315           
00 24.02.17 140 (ЮВ) 20000 м    ясно 
-13.1 -13.7 95 -13  1032.1  -0.2  746  317  -13.1      28  неравномерный
сухой снег
100% 
03 24.02.17 тихо ()   20000 м    ясно 
-9.7 -11.9 84 -10  1031.9  0.2  746  313  -14         
06 24.02.17 300 (СЗ) 20000 м    ясно 
-2.6 -7.6 68 -4  1029.6  -1.2  745  304           
09 24.02.17 260 (З) 20000 м    6/0 верхняя 
[Ci fib]
+0.5 -6.3 60 +1  1027.3  -1.7  744  300           
12 24.02.17 тихо ()   20000 м    9/0 верхняя 
[Ci fib]
-7 -9 86 -7  1027.4  -0.9  743  308    +1.9       
15 24.02.17 130 (ЮВ) 20000 м    ясно 
-12.3 -12.9 95 -12  1027.3  -0.8  743  314           
18 24.02.17 140 (ЮВ) 20000 м    ясно 
-12.8 -13.3 96 -15  1026.6  -0.7  742  315           
21 24.02.17 тихо ()   20000 м    ясно 
-13.3 -14 94 -13  1026.6  0.1  742  315           
00 25.02.17 120 (ЮВ) 20000 м    4/0 верхняя 
[Ci fib]
-14.3 -15.1 94 -14  1027.3  0.6  742  317  -14.3      28  неравномерный
сухой снег
100% 
03 25.02.17 120 (ЮВ) 20000 м    9/0 верхняя 
[Ci fib]
-10.1 -12.3 84 -10  1027  0.3  743  312  -14.3         
06 25.02.17 тихо ()   20000 м    3/0 верхняя 
[Ci fib]
-2.9 -8.1 67 -3  1025  -0.9  742  303           
09 25.02.17 290 (З) 20000 м    ясно 
+0.1 -6.1 63 -1  1024  -0.5  741  299           
12 25.02.17 тихо ()   20000 м    3/0 верхняя 
[Ci fib]
-7.7 -9.6 86 -8  1025.4  0.3  742  308    +0.5       
15 25.02.17 120 (ЮВ) 20000 м    ясно 
-12.5 -13.2 94 -12  1026.3  0.2  742  314           
18 25.02.17 110 (В) 20000 м    3/0 верхняя 
[Ci fib]
-14.1 -14.8 94 -16  1025.9  -0.7  741  316           
21 25.02.17 120 (ЮВ) 20000 м    10/10 2000 м 
[As trans]
-13.4 -14.3 93 -13  1025.1  -0.6  741  315           
00 26.02.17 тихо ()   20000 м    10/10 2000 м 
[As trans]
-13.2 -14.1 93 -13  1025.5  0.4  741  315  -14.3      28  неравномерный
сухой снег
100% 
03 26.02.17 тихо ()   20000 м    10/10 2000 м 
[Ns]
-9.3 -10.9 88 -9  1025.8  0.8  742  310           
06 26.02.17 280 (З) 20000 м    9/6 2000 м средняя, верхняя 
[As trans|Ci fib]
-4.9 -9.3 71 -4  1025.9  0.7  742  305           
09 26.02.17 300 (СЗ) 20000 м    10/10 2000 м 
[Ns]
-2.7 -7.5 69 -4  1026.2  0.6  743  303           
12 26.02.17 120 (ЮВ) 10 км  слаб. снег  10/10 2000 м 
[Ns]
-3.6 -4 97 -3  1027.3  743  304    -1.2  0.7     
Время (UTC), дата Ветер
(°,м/с) 
Видим.   Явления Облачность Т
(°С)
Тd
(°С)
f(%) Тe
(°С)
Pmin
(гПа)
dP
(гПа)
Po
(мм)
O2
(г/м3)
Тmin Tmax R s Состояние
почвы

Для получения пояснительной информации подведите курсор к названию столбца.

ПОГОДА Идринское - архив

Всё, что Вы хотите узнать о погоде Идринское - удобно и подробно!

Выберите нужную дату (начиная с 1 января 2015* года) и нажмите кнопку "Найти".
Будут отображены архивные сводки погоды по пункту Идринское, начиная с указанной даты.


Отображать данные в формате CSV (для использования в таблицах Excel)


Внимание! Наш архив погоды предназначен исключительно для личного некоммерческого использования в познавательных целях. Если Вам необходимы официальные справки о состоянии погоды (для производственных, юридических, коммерческих и т.п. целей), обращайтесь в органы Росгидромета.

*Примечание: данная дата относится к архиву по метеостанциям СССР (Россия, СНГ, Балтия).
Архив по метеостанциям Зарубежной Европы и Азии (кроме Китая) хранится 10 дней, по другим регионам земного шара (Китай, Африка, Америка, Австралия, Океания) - 1 день.

Идринское - район местоположения метеостанции


Название, широта, долгота, высота метеостанции:
Идринское 54.4°ш. 92.1°д. 282 м над ур. моря [Российская Федерация]

Дополнительная информация

В oтличие oт бoльшинства пoгoдных сайтoв мы публикуем пoдрoбную метеoинфoрмацию в детальнoм прoфессиoнальнoм фoрмате.

Характеристики температуры и влажнoсти вoздуха измеряются на высoте 2 м в тени вдали oт зданий и деревьев.
Скoрoсть ветра измеряется на высoте 10 м (на урoвне рoста челoвека скoрoсть ветра ниже в 1.5-2 раза). Если метеoстанция нахoдится в гoрoде или в лесу, тo скoрoсть ветра занижена на 2-4 м/с пo сравнению с oткрытым местoм. Скoрoсть ветра над акватoриями крупных рек и oзёр, а также на вершинах хoлмoв на 2-5 м/с выше, чем в oбычных услoвиях.
Атмoсфернoе давление в разных тoчках местнoсти мoжет значительнo oтличаться oт давления на метеoстанции, в зависимoсти oт услoвий рельефа (при пoдъёме на 10 м давление пoнижается примернo на 1 мм рт.ст.).